Location: Ahausen
(50.4985°N, 8.2722°E)
Time: 10:33:57
(UTC+00:00)

CUTE 1.7 + AOD 2 - Visible Passes

Search period start: 30 June 2022 00:00
Search period end: 10 July 2022 00:00
Orbit: 590 x 607 km, 97.7° (Epoch: 29 June)

Date Brightness Start Highest point End Pass type
(mag) Time Alt. Az. Time Alt. Az. Time Alt. Az.
30 Jun ? 01:58:54 10° ENE 01:59:46 11° E 02:00:38 10° E visible
01 Jul ? 02:08:36 10° ENE 02:10:43 14° E 02:12:50 10° ESE visible
02 Jul ? 02:18:52 10° NE 02:21:39 17° E 02:24:26 10° SE visible
03 Jul ? 02:29:18 10° NE 02:32:34 21° E 02:35:48 10° SE visible
09 Jul ? 02:00:06 10° ENE 02:01:17 11° E 02:02:27 10° ESE visible
